Regional Weather Roundup
Issued by NWS

Home | Current Version | Previous Version | Text Only | Print | Product List | Glossary Off
Versions: 1 2 3 4 5 6 7 8 9 10 11 12 13 14 15 16 17 18 19 20 21 22 23 24 25 26 27 28 29 30 31 32 33 34 35 36 37 38 39 40 41 42 43 44 45 46 47 48 49 50

000
ASUS43 KFSD 131410
RWRSD

WEATHER ROUNDUP FOR SOUTH DAKOTA
NATIONAL WEATHER SERVICE SIOUX FALLS SD
800 AM CST WED DEC 13 2017

NOTE: "FAIR" INDICATES FEW OR NO CLOUDS BELOW 12,000 FEET WITH NO
SIGNIFICANT WEATHER AND/OR OBSTRUCTIONS TO VISIBILITY.


SDZ001>005-009-010-012>017-131500-
NORTHWEST AND NORTH CENTRAL SOUTH DAKOTA

CITY           SKY/WX    TMP DP  RH WIND       PRES   REMARKS
BUFFALO          N/A     33  23  66 NW23      29.95F WCI  21
FAITH            N/A     34  25  69 NW25G37   29.94R WCI  21
MOBRIDGE       CLEAR     38  28  67 NW22G29   29.82R
$$

SDZ012>016-024>037-041>051-057-063-072>074-131500-
SOUTHWEST AND SOUTH CENTRAL SOUTH DAKOTA

CITY           SKY/WX    TMP DP  RH WIND       PRES   REMARKS
RAPID CTY ARPT CLEAR     42  17  36 NW32G40   30.00R
PIERRE         CLEAR     40  28  62 NW28G35   29.88R
CUSTER         CLEAR     36  11  35 NW12G21   29.99S
ELLSWORTH AFB  CLEAR     41  18  39 N35G44    29.98R
PHILIP         CLEAR     40  24  53 NW25G36   29.96R
PINE RIDGE     CLEAR     34  19  54 NW9       30.02S WCI  27
SPEARFISH      FAIR      37  18  44 W22G29    30.08S
WINNER         FAIR      42  25  50 NW26G33   29.86R
$$

SDZ004>011-016>023-039-040-131500-
NORTHEAST SOUTH DAKOTA

CITY           SKY/WX    TMP DP  RH WIND       PRES   REMARKS
ABERDEEN       CLOUDY    37  31  78 NW23G32   29.75R
WATERTOWN      CLOUDY    35  33  92 NW26G33   29.65R WCI  22
BROOKINGS      CLOUDY    37  31  78 NW28G40   29.64R
SISSETON         N/A     35  32  88 NW21      29.66R WCI  24
$$

SDZ017-020-022-023-036>040-048>070-131500-
SOUTHEAST SOUTH DAKOTA

CITY           SKY/WX    TMP DP  RH WIND       PRES   REMARKS
SIOUX FALLS    CLOUDY    41  34  76 NW29G40   29.64R
HURON          PTCLDY    38  30  73 NW20G29   29.75R
CHAMBERLAIN    CLEAR     42  29  60 NW23G30   29.83R
MITCHELL       CLEAR     42  30  62 NW28G37   29.75R
YANKTON        PTCLDY    44  29  55 NW25G32   29.72R
$$

ABBREVIATIONS USED IN REMARKS
   TC - TEMPERATURE IN CELSIUS
  WCI - WIND CHILL INDEX
   HX - HEAT INDEX
  VSB - VISIBILITY




USA.gov is the U.S. government's official web portal to all federal, state and local government web resources and services.